Perryton, TX

12:21 AM CDT on May 28, 2017 (GMT -0500)
Perryton Ochiltree County

Weather History for KPYX - July, 2013

Change the Weather History Date:

Wednesday, July 3, 2013

  Actual Average Record
Temperature  
Mean Temperature 71 °F -  
Max Temperature 85 °F 93 °F 104 °F (1983)
Min Temperature 58 °F 64 °F 54 °F (1985)
Cooling Degree Days 6    
Growing Degree Days 21 (Base 50)    
Moisture  
Dew Point 43 °F    
Average Humidity 37    
Maximum Humidity 63    
Minimum Humidity 21    
Precipitation  
Precipitation 0.00 in - - ()
Sea Level Pressure  
Sea Level Pressure 30.08 in    
Wind  
Wind Speed 8 mph (South)    
Max Wind Speed 21 mph    
Max Gust Speed 29 mph    
Visibility 10 miles    
Events      
Averages and records for this station are not official NWS values.
T = Trace of Precipitation, MM = Missing Value Source: NWS Daily Summary

Daily Weather History Graph

Daily Weather History Graph

Search for Another Location

Airport or City:

Trip Planner

Search our weather history database for the weather conditions in past years. The results will help you decide how hot, cold, wet, or windy it might be!

Date:

Astronomy

Jul. 03, 2013 Rise Set
Actual Time 6:29 AM CDT 9:04 PM CDT
Civil Twilight 5:59 AM CDT 9:34 PM CDT
Nautical Twilight 5:21 AM CDT 10:12 PM CDT
Astronomical Twilight 4:40 AM CDT 10:54 PM CDT
Moon 3:05 AM CDT (7/3) 5:19 PM CDT (7/3)
Length of Visible Light 15h 35m
Length of Day
14h 34m
Waning Crescent, 18% of the Moon is Illuminated
Jul 3
Waning Crescent
Jul 8
New
Jul 15
First Quarter
Jul 22
Full
Jul 29
Last Quarter

Hourly Weather History & Observations

Time (CDT) Temp. Dew Point Humidity Pressure Visibility Wind Dir Wind Speed Gust Speed Precip Events Conditions
12:15 AM 63.5 °F 43.7 °F 48% 30.16 in 10.0 mi ESE 5.8 mph - N/A   Clear
12:35 AM 61.3 °F 44.6 °F 54% 30.16 in 10.0 mi SE 5.8 mph - N/A   Clear
12:55 AM 61.3 °F 44.8 °F 55% 30.16 in 10.0 mi SE 4.6 mph - N/A   Clear
1:15 AM 58.1 °F 43.7 °F 59% 30.16 in 10.0 mi South 4.6 mph - N/A   Clear
1:35 AM 58.1 °F 42.6 °F 56% 30.16 in 10.0 mi South 6.9 mph - N/A   Clear
1:55 AM 58.1 °F 42.8 °F 57% 30.15 in 10.0 mi South 5.8 mph - N/A   Scattered Clouds
2:15 AM 60.3 °F 43.3 °F 54% 30.15 in 10.0 mi ESE 5.8 mph - N/A   Mostly Cloudy
2:35 AM 63.5 °F 43.7 °F 48% 30.15 in 10.0 mi ESE 5.8 mph - N/A   Mostly Cloudy
2:55 AM 61.9 °F 43.9 °F 52% 30.15 in 10.0 mi SSE 6.9 mph - N/A   Mostly Cloudy
3:15 AM 62.2 °F 43.2 °F 50% 30.15 in 10.0 mi South 5.8 mph - N/A   Scattered Clouds
3:35 AM 62.1 °F 43.7 °F 51% 30.14 in 7.0 mi South 5.8 mph - N/A   Scattered Clouds
3:55 AM 62.1 °F 44.4 °F 52% 30.13 in 10.0 mi SE 8.1 mph - N/A   Scattered Clouds
4:15 AM 61.0 °F 44.1 °F 54% 30.14 in 10.0 mi South 4.6 mph - N/A   Scattered Clouds
4:35 AM 61.2 °F 44.8 °F 55% 30.14 in 10.0 mi Calm Calm - N/A   Mostly Cloudy
4:55 AM 61.2 °F 43.9 °F 53% 30.14 in 10.0 mi WSW 3.5 mph - N/A   Overcast
5:15 AM 62.2 °F 47.8 °F 59% 30.14 in 10.0 mi South 6.9 mph - N/A   Overcast
5:35 AM 62.8 °F 48.0 °F 59% 30.12 in 10.0 mi South 9.2 mph - N/A   Overcast
5:55 AM 63.1 °F 46.8 °F 55% 30.12 in 10.0 mi South 8.1 mph - N/A   Mostly Cloudy
6:15 AM 63.3 °F 45.9 °F 53% 30.12 in 10.0 mi SW 5.8 mph - N/A   Mostly Cloudy
6:35 AM 62.6 °F 46.2 °F 55% 30.12 in 10.0 mi South 5.8 mph - N/A   Mostly Cloudy
6:55 AM 61.3 °F 46.8 °F 59% 30.12 in 10.0 mi South 5.8 mph - N/A   Mostly Cloudy
7:15 AM 61.3 °F 45.5 °F 56% 30.12 in 10.0 mi South 5.8 mph - N/A   Scattered Clouds
7:35 AM 60.4 °F 47.7 °F 63% 30.12 in 10.0 mi ESE 5.8 mph - N/A   Scattered Clouds
7:55 AM 64.4 °F 45.0 °F 49% 30.13 in 10.0 mi South 8.1 mph - N/A   Scattered Clouds
8:15 AM 67.3 °F 44.2 °F 43% 30.14 in 10.0 mi SSW 6.9 mph - N/A   Clear
8:35 AM 69.8 °F 44.8 °F 41% 30.14 in 10.0 mi SSW 9.2 mph - N/A   Clear
8:55 AM 73.6 °F 43.2 °F 34% 30.14 in 10.0 mi SSW 12.7 mph 19.6 mph N/A   Mostly Cloudy
9:15 AM 74.7 °F 42.8 °F 32% 30.14 in 3.0 mi South 15.0 mph - N/A   Mostly Cloudy
9:35 AM 77.0 °F 41.7 °F 28% 30.13 in 10.0 mi SSW 16.1 mph - N/A   Scattered Clouds
9:55 AM 77.0 °F 41.4 °F 28% 30.12 in 10.0 mi South 16.1 mph - N/A   Mostly Cloudy
10:15 AM 78.6 °F 41.5 °F 27% 30.12 in 10.0 mi SSW 15.0 mph - N/A   Mostly Cloudy
10:35 AM 79.3 °F 41.9 °F 26% 30.12 in 10.0 mi SSW 15.0 mph 18.4 mph N/A   Mostly Cloudy
10:55 AM 78.8 °F 40.5 °F 25% 30.12 in 10.0 mi SSW 13.8 mph 21.9 mph N/A   Mostly Cloudy
11:15 AM 79.9 °F 41.4 °F 25% 30.11 in 10.0 mi South 10.4 mph 17.3 mph N/A   Scattered Clouds
11:35 AM 80.8 °F 40.8 °F 24% 30.10 in 10.0 mi South 11.5 mph - N/A   Clear
11:55 AM 81.9 °F 39.2 °F 22% 30.10 in 10.0 mi South 10.4 mph - N/A   Clear
12:15 PM 82.8 °F 39.4 °F 21% 30.10 in 10.0 mi South 8.1 mph 18.4 mph N/A   Clear
12:35 PM 83.3 °F 39.4 °F 21% 30.09 in 10.0 mi SSW 10.4 mph 19.6 mph N/A   Scattered Clouds
12:55 PM 82.6 °F 42.4 °F 24% 30.09 in 7.0 mi SW 15.0 mph 24.2 mph N/A   Mostly Cloudy
1:15 PM 84.4 °F 41.2 °F 22% 30.08 in 7.0 mi WSW 20.7 mph 27.6 mph N/A   Scattered Clouds
1:35 PM 84.4 °F 43.2 °F 23% 30.08 in 10.0 mi WSW 20.7 mph 28.8 mph N/A   Clear
1:55 PM 83.8 °F 42.3 °F 23% 30.07 in 10.0 mi WSW 19.6 mph 27.6 mph N/A   Clear
2:15 PM 83.5 °F 43.9 °F 25% 30.06 in 10.0 mi SSW 15.0 mph 25.3 mph N/A   Clear
2:35 PM 82.6 °F 44.8 °F 26% 30.05 in 10.0 mi SSW 15.0 mph 23.0 mph N/A   Clear
2:55 PM 84.6 °F 42.6 °F 23% 30.05 in 10.0 mi SSW 15.0 mph 25.3 mph N/A   Clear
3:15 PM 82.9 °F 44.2 °F 26% 30.04 in 10.0 mi SW 16.1 mph 26.5 mph N/A   Clear
3:35 PM 84.2 °F 43.3 °F 24% 30.04 in 10.0 mi SSW 15.0 mph 20.7 mph N/A   Clear
3:55 PM 84.6 °F 43.3 °F 23% 30.03 in 10.0 mi South 12.7 mph 18.4 mph N/A   Clear
4:15 PM 84.6 °F 43.0 °F 23% 30.02 in 10.0 mi SSW 13.8 mph 19.6 mph N/A   Clear
4:35 PM 84.4 °F 43.0 °F 23% 30.02 in 10.0 mi SW 10.4 mph 20.7 mph N/A   Clear
4:55 PM 84.4 °F 42.3 °F 23% 30.00 in 10.0 mi SE 8.1 mph 13.8 mph N/A   Clear
5:15 PM 84.4 °F 42.1 °F 22% 30.00 in 10.0 mi South 12.7 mph 19.6 mph N/A   Clear
5:35 PM 84.7 °F 41.4 °F 22% 29.99 in 10.0 mi South 9.2 mph 21.9 mph N/A   Clear
5:55 PM 84.6 °F 41.4 °F 22% 29.98 in 10.0 mi SSW 16.1 mph 19.6 mph N/A   Clear
6:15 PM 84.4 °F 41.5 °F 22% 29.98 in 10.0 mi South 12.7 mph 17.3 mph N/A   Clear
6:35 PM 83.8 °F 41.7 °F 23% 29.97 in 10.0 mi SSW 11.5 mph 19.6 mph N/A   Clear
6:55 PM 83.7 °F 41.2 °F 22% 29.97 in 10.0 mi South 15.0 mph - N/A   Clear
7:15 PM 83.7 °F 41.5 °F 23% 29.98 in 10.0 mi South 10.4 mph 17.3 mph N/A   Clear
7:35 PM 82.6 °F 40.8 °F 23% 29.97 in 10.0 mi South 12.7 mph 17.3 mph N/A   Clear
7:55 PM 81.5 °F 40.1 °F 23% 29.97 in 10.0 mi South 11.5 mph - N/A   Clear
8:15 PM 81.1 °F 40.1 °F 23% 29.97 in 10.0 mi South 11.5 mph - N/A   Scattered Clouds
8:35 PM 79.9 °F 40.3 °F 24% 29.98 in 10.0 mi SSE 10.4 mph - N/A   Scattered Clouds
8:55 PM 78.1 °F 41.0 °F 27% 29.98 in 10.0 mi SSE 9.2 mph - N/A   Scattered Clouds
9:35 PM 73.0 °F 42.1 °F 33% 29.98 in 10.0 mi SSE 5.8 mph - N/A   Scattered Clouds
9:55 PM 70.3 °F 42.8 °F 37% 29.99 in 10.0 mi SSE 5.8 mph - N/A   Clear
10:15 PM 69.4 °F 42.4 °F 38% 30.00 in 7.0 mi SSE 8.1 mph - N/A   Scattered Clouds
10:35 PM 68.7 °F 43.3 °F 40% 30.01 in 10.0 mi SSE 5.8 mph - N/A   Scattered Clouds
10:55 PM 67.8 °F 43.2 °F 41% 30.01 in 10.0 mi South 5.8 mph - N/A   Scattered Clouds
11:15 PM 67.1 °F 43.7 °F 43% 30.02 in 10.0 mi South 6.9 mph - N/A   Mostly Cloudy
11:35 PM 68.0 °F 43.7 °F 41% 30.02 in 10.0 mi SSE 6.9 mph - N/A   Mostly Cloudy
11:55 PM 67.3 °F 44.1 °F 43% 30.02 in 10.0 mi SSE 6.9 mph - N/A   Scattered Clouds